Temperature
10 9 8 9 10 10 10 10 10 11 12 12 11 12 13 14 14 15 15 16 16 17 17 16 17 16 16 16 15 15 15 14 14 14 13 13 13 13 12 12 12 12 12 12
9 8 10 11 10 10 10 9 9 11 12 12 11 12 13 14 14 14 15 16 16 17 17 16 16 16 16 16 15 15 15 14 14 14 14 14 13 13 13 12 12 12 12 12
9 10 11 10 10 10 9 9 10 10 11 11 11 11 12 13 14 15 15 15 16 16 16 16 16 16 15 15 15 15 15 14 14 14 13 13 13 12 12 12 12 12 12 11
9 10 10 10 10 10 9 10 10 10 9 9 10 9 11 12 13 14 14 14 15 15 16 16 16 15 15 15 15 15 14 14 14 13 13 13 13 13 13 13 12 12 12 11
9 10 10 9 10 10 9 10 10 9 9 8 9 9 10 13 13 13 13 14 14 15 15 15 15 15 15 15 15 14 14 14 13 13 13 13 13 13 13 13 12 12 12 11
9 10 10 10 10 10 10 9 9 9 8 8 9 9 10 12 13 13 14 14 14 14 14 14 14 15 14 14 14 14 14 13 13 13 13 13 13 12 12 12 12 12 12 12
9 10 10 10 9 9 9 8 7 7 7 8 11 11 11 12 13 13 13 13 14 13 13 13 13 13 14 13 13 13 13 13 13 13 13 13 13 12 12 12 12 12 12 12
7 8 10 10 9 8 8 8 7 7 7 9 10 10 11 13 13 14 13 13 13 13 13 13 13 13 13 13 13 13 13 13 13 13 13 13 12 12 12 12 12 12 12 12
7 7 10 10 10 9 8 7 8 7 7 7 9 10 11 13 12 12 12 12 11 12 12 12 12 12 12 12 12 12 12 12 12 13 13 13 12 12 12 12 12 12 12 12
7 6 8 9 9 9 8 8 7 6 6 7 9 10 10 10 11 11 11 10 11 11 11 11 11 11 11 11 12 12 12 12 12 12 12 12 12 12 12 12 12 12 12 11
6 5 6 8 7 7 7 7 7 6 6 6 7 9 11 10 10 10 10 11 11 10 10 10 11 11 11 11 11 11 11 11 11 12 12 12 12 12 12 12 12 12 12 12
6 5 4 6 8 8 7 7 6 5 5 6 6 8 11 10 10 10 10 10 10 10 10 10 10 10 10 10 10 10 11 11 11 11 11 11 12 12 11 12 12 12 12 12
5 4 4 5 6 7 6 6 6 6 5 5 6 8 10 9 9 10 10 10 9 9 9 9 9 9 9 10 10 10 10 10 10 11 11 11 11 11 11 11 12 12 12 12
6 3 3 4 5 5 5 5 5 5 4 5 6 7 8 9 9 9 9 9 9 9 9 8 8 8 9 9 9 9 9 9 10 10 10 11 11 11 11 11 11 11 11 11
4 3 3 4 5 5 5 5 5 4 4 5 6 7 8 8 8 8 9 9 9 8 8 8 7 7 8 8 8 8 9 9 9 9 10 10 10 11 11 11 11 11 11 11
3 3 3 3 5 5 5 6 6 5 5 5 6 6 7 8 8 8 8 8 8 8 7 7 7 7 7 7 7 7 8 8 8 9 9 9 10 10 11 11 11 11 11 11
3 2 2 3 5 4 4 5 6 6 6 6 5 6 7 7 7 7 7 7 7 7 6 6 6 6 6 6 7 7 7 7 8 8 8 9 9 10 10 10 10 10 10 11
2 2 2 2 3 2 4 7 7 7 7 7 6 6 7 7 7 7 7 7 6 6 6 6 6 6 6 6 6 6 6 7 7 7 7 8 8 9 9 10 10 10 10 10
3 2 2 2 2 3 5 7 7 6 5 6 6 6 6 6 6 6 6 6 6 5 5 5 5 5 5 5 6 6 6 6 6 6 7 7 8 8 8 9 9 9 10 10
3 2 1 1 1 2 5 6 7 6 4 5 5 5 5 5 3 4 5 5 5 5 5 5 5 5 5 5 5 5 5 5 6 6 6 6 7 7 8 8 9 9 9 9
2 1 1 1 1 2 5 6 6 3 3 5 5 5 5 4 4 5 5 5 5 4 4 4 4 4 5 5 5 5 5 5 5 5 6 6 6 7 7 7 8 8 8 9
2 1 1 1 1 2 5 5 4 3 5 5 5 5 5 5 4 4 4 4 4 4 4 4 4 4 4 4 4 4 4 4 5 5 5 5 6 6 7 7 7 8 8 8
3 3 2 2 3 5 6 5 5 5 5 5 5 4 4 4 4 4 4 4 4 4 3 3 3 4 4 4 4 4 4 4 4 4 5 5 5 5 6 6 7 7 7 7
3 4 3 3 3 5 6 6 5 5 5 5 4 4 4 3 3 3 3 3 3 3 3 3 3 3 3 3 3 3 3 4 4 4 4 4 4 5 5 6 6 6 7 7
3 3 2 2 3 4 5 5 5 5 4 4 4 4 3 3 3 3 3 3 3 3 2 2 2 2 2 3 3 3 3 3 3 3 3 4 4 4 5 5 6 6 6 6
3 3 2 2 3 3 4 5 4 4 4 4 3 3 3 3 2 2 2 2 2 2 2 2 2 2 2 2 2 2 2 2 3 3 3 3 3 4 4 5 5 5 6 6
Wind_Speed
4 5 7 8 9 11 11 14 16 16 12 12 15 18 17 14 14 13 12 13 12 12 11 10 10 10 12 12 13 14 14 14 13 12 11 11 10 9 9 9 12 14 14 14
4 9 10 9 9 11 12 15 16 14 10 12 15 19 17 15 14 13 13 12 11 10 10 9 10 11 11 13 13 14 14 14 14 12 11 10 10 9 9 8 11 14 14 14
8 7 6 7 9 11 12 13 14 14 14 12 13 14 15 12 13 12 11 10 8 8 7 7 7 9 10 11 14 13 14 14 13 12 10 9 8 7 8 10 10 12 14 14
7 8 8 9 10 9 11 10 13 14 10 7 6 10 11 12 12 11 9 8 7 8 7 6 6 6 7 9 10 13 13 13 13 13 12 13 12 11 11 11 10 11 13 13
6 7 7 9 9 9 9 11 13 13 11 11 10 9 8 8 10 9 8 8 7 6 5 5 6 6 6 6 7 9 12 13 13 14 15 15 13 11 9 10 12 13 12 13
11 9 6 6 7 7 8 9 10 9 6 8 9 9 7 6 7 7 6 5 5 4 4 3 3 3 3 4 6 6 9 13 14 15 17 17 16 13 13 14 14 13 11 12
7 8 7 5 6 5 5 4 3 3 4 7 6 7 6 5 3 3 3 2 1 1 2 3 1 2 2 3 5 6 8 10 12 15 17 18 18 16 16 15 16 14 12 12
5 5 3 3 5 4 5 4 3 4 4 6 5 6 4 3 2 1 1 3 3 3 2 3 2 2 2 3 4 5 7 9 11 13 15 16 17 14 13 14 13 15 13 13
5 5 3 4 4 4 4 4 5 6 7 7 6 5 6 4 3 2 3 4 5 4 5 4 3 2 1 3 4 6 6 8 10 11 12 14 16 16 15 14 13 13 12 12
4 7 7 6 4 5 6 4 3 3 4 6 6 6 5 1 3 3 4 4 4 5 6 5 4 4 2 3 4 5 6 8 8 9 10 10 13 15 15 14 15 14 15 14
4 5 6 4 5 6 5 5 5 4 5 4 5 3 4 3 3 4 4 4 4 5 5 5 5 5 4 3 3 4 5 6 7 8 9 9 11 12 13 14 15 14 15 16
3 4 7 8 7 5 7 7 6 5 7 6 6 6 4 3 3 3 5 5 5 6 7 7 6 6 5 4 3 4 4 5 6 7 8 9 10 11 12 13 14 14 15 16
2 3 5 5 4 3 4 5 6 6 6 7 8 7 2 4 6 6 6 6 6 6 7 7 7 6 6 5 4 4 4 5 5 5 7 8 9 10 12 13 13 13 13 14
4 5 8 8 5 4 7 8 8 7 8 10 12 13 11 9 8 8 7 7 7 7 7 6 6 7 7 6 5 5 4 4 4 4 6 8 8 9 10 11 12 13 13 13
4 7 10 15 16 13 13 14 12 13 12 13 14 16 15 11 8 7 7 7 7 7 6 7 6 6 7 7 6 6 5 5 4 4 5 6 7 7 9 10 11 12 12 12
5 6 7 13 14 15 18 17 16 16 16 17 18 20 14 11 9 9 7 7 7 6 6 6 7 7 7 7 7 7 7 6 5 5 5 5 6 5 8 10 10 11 11 11
5 5 5 9 10 11 14 15 17 15 14 14 17 15 10 10 9 7 6 6 6 5 6 7 7 6 7 7 6 7 7 7 6 6 6 5 5 6 6 8 9 11 11 10
8 7 5 6 7 12 9 6 9 12 13 11 10 9 7 8 7 5 4 5 6 7 6 6 6 7 6 6 6 6 7 6 6 6 6 5 5 6 6 7 9 10 9 10
13 9 6 5 8 11 9 7 6 7 9 7 7 7 6 6 6 5 4 4 5 6 6 6 6 7 6 6 6 6 6 5 5 6 6 5 5 6 6 8 9 8 8 9
12 11 8 7 7 7 4 1 1 3 7 4 4 5 6 5 5 5 5 6 6 6 6 6 6 7 6 6 6 5 6 5 6 6 6 6 6 6 7 8 7 7 7 9
7 9 13 13 10 8 7 2 2 4 6 2 2 3 3 4 5 5 6 6 6 6 7 7 6 6 6 6 6 6 6 6 6 6 6 6 6 7 7 6 6 7 7 8
9 7 8 8 10 10 5 3 5 6 3 3 3 3 4 6 6 7 7 7 8 7 7 7 6 7 6 5 5 6 6 6 6 6 6 6 6 6 5 5 6 7 7 8
9 10 6 9 9 5 3 5 5 4 5 5 5 5 6 7 7 8 8 8 8 7 7 6 7 7 6 5 5 6 6 6 6 6 6 6 6 6 5 5 5 6 7 7
7 8 8 8 9 9 8 7 7 7 7 7 6 6 7 8 8 9 8 7 7 7 7 6 6 7 7 5 5 5 6 6 6 6 6 6 5 5 4 4 4 5 6 7
7 5 9 13 11 11 11 9 9 8 7 7 7 7 7 8 9 9 8 7 6 6 6 6 6 6 7 6 5 5 6 6 6 6 6 5 5 4 4 3 3 4 5 6
10 11 12 12 9 9 8 7 8 8 8 7 7 8 7 8 9 8 7 7 6 6 6 6 7 6 6 6 6 5 5 5 6 6 5 5 4 4 3 2 2 2 3 4
Wind_Direction
217 236 244 249 248 265 281 282 282 282 285 279 274 276 275 270 266 262 258 253 246 240 237 232 222 213 205 202 199 194 188 189 186 183 184 185 185 181 177 177 175 174 174 173
244 243 254 268 276 279 279 282 281 283 285 286 279 274 272 268 263 260 256 254 251 248 235 226 220 214 207 202 196 194 191 191 190 188 184 184 180 182 180 180 179 179 178 176
256 269 280 272 272 276 275 274 281 288 296 282 285 277 263 263 261 257 253 256 260 257 242 227 223 218 207 200 192 195 192 194 191 185 176 175 173 177 184 187 186 184 181 179
269 271 273 274 274 278 281 285 290 289 290 281 271 283 267 259 252 246 245 253 255 266 254 226 217 211 203 205 195 192 191 193 190 184 183 179 185 190 193 185 185 184 184 183
264 269 268 267 274 283 278 296 290 279 277 279 263 264 270 252 248 238 235 242 249 263 268 243 220 211 210 201 191 194 193 197 192 189 190 189 193 194 186 181 183 187 189 188
261 265 273 270 282 284 291 297 290 271 259 259 244 241 275 254 250 245 236 244 243 252 268 268 227 196 223 196 187 186 196 204 196 194 193 193 196 192 186 189 188 190 190 191
275 247 234 245 276 275 286 299 300 269 226 246 254 246 257 254 255 260 234 235 284 302 321 334 326 242 226 194 195 196 197 209 205 202 198 197 198 196 195 196 192 190 191 194
295 281 238 233 251 271 264 252 257 275 267 291 281 250 264 296 316 351 54 47 25 352 342 325 310 271 210 204 210 210 211 218 213 205 202 200 201 201 202 202 200 195 196 194
288 283 290 280 277 249 269 245 255 273 280 274 254 258 270 279 306 8 45 43 27 1 2 352 350 325 217 217 232 223 220 222 216 210 206 204 203 204 203 202 205 200 196 191
283 287 284 283 269 241 249 274 271 248 272 270 262 258 280 321 349 18 36 26 2 358 358 345 339 331 293 235 234 233 226 228 219 215 211 212 206 207 204 201 205 202 195 192
263 269 285 270 234 243 235 239 248 256 260 274 284 278 341 19 36 30 19 10 2 352 344 333 326 319 306 277 246 243 240 242 229 219 215 212 212 211 208 204 206 205 197 192
244 261 269 262 252 243 243 242 234 249 261 255 269 273 328 7 24 25 12 3 357 355 353 346 337 330 326 312 275 248 245 249 243 229 222 215 212 210 212 212 208 207 200 194
243 247 282 278 232 226 258 258 264 270 271 260 262 269 320 346 354 360 354 349 350 353 350 346 342 334 325 318 308 278 258 252 250 243 234 226 215 210 211 213 211 210 203 196
252 237 233 251 272 293 277 269 261 256 255 260 254 269 283 298 317 326 330 333 337 339 343 341 340 334 329 324 317 309 294 276 262 251 243 237 225 217 213 213 210 211 206 200
225 250 251 262 271 273 268 265 255 247 249 257 269 274 278 288 295 301 309 316 322 331 339 340 338 332 329 329 326 319 307 297 283 264 255 252 244 226 215 213 210 210 209 205
223 255 270 267 264 266 267 262 257 253 253 257 268 271 276 284 292 297 306 312 318 325 336 334 331 327 324 325 324 320 310 299 293 277 266 261 256 238 218 211 210 209 208 202
219 236 259 267 275 281 264 251 248 247 245 249 258 266 280 286 288 296 309 311 314 321 327 325 321 321 317 312 308 309 305 303 296 283 273 264 257 249 230 213 206 210 204 201
223 230 247 271 280 250 249 251 248 252 254 251 261 276 281 287 295 296 304 310 319 321 320 316 317 315 308 305 300 300 304 300 293 290 281 269 259 250 243 225 212 212 203 201
218 220 236 247 257 269 267 257 250 258 266 258 264 282 298 310 304 294 309 318 307 305 312 309 307 308 305 307 309 309 306 298 294 294 290 281 265 246 236 230 221 217 203 203
209 211 227 238 249 254 256 313 290 291 271 255 255 277 292 310 293 290 321 322 313 308 312 311 308 309 311 315 316 310 306 300 294 293 293 288 276 260 241 232 224 218 207 205
193 208 221 234 247 260 265 253 126 222 252 317 293 282 288 279 268 291 308 310 305 306 304 305 303 304 305 311 315 305 301 296 294 294 291 287 280 267 252 239 224 208 204 198
195 204 209 217 235 248 240 189 205 233 302 321 305 292 286 285 290 297 298 299 299 299 300 304 306 303 303 306 307 299 299 298 301 300 293 286 282 276 258 238 223 203 195 195
211 209 209 211 227 244 222 234 248 266 278 280 275 279 285 285 285 290 292 292 292 294 297 298 299 300 304 305 301 297 300 307 306 303 294 287 284 276 257 237 222 203 194 195
232 224 241 254 255 264 270 270 263 262 265 269 268 272 276 277 280 283 285 285 289 292 294 293 295 301 307 310 307 304 308 311 306 300 296 291 288 283 263 244 220 204 198 196
242 238 247 256 262 273 267 264 264 266 268 273 272 268 266 271 276 279 281 282 284 289 294 296 293 293 298 305 305 309 313 314 310 305 300 297 290 283 272 255 228 218 215 205
238 241 246 254 255 259 268 273 274 274 272 272 276 276 273 269 271 274 275 275 278 282 286 289 289 290 295 301 302 305 310 308 309 306 302 298 295 289 277 258 263 246 217 214
Height
1454 1456 1453 1448 1447 1445 1443 1441 1437 1431 1427 1427 1424 1418 1413 1410 1409 1406 1405 1404 1404 1404 1405 1408 1409 1412 1415 1418 1421 1424 1427 1432 1436 1439 1443 1448 1452 1457 1461 1465 1469 1473 1477 1481
1452 1451 1445 1443 1442 1442 1441 1441 1435 1428 1424 1424 1420 1413 1408 1404 1402 1401 1400 1399 1398 1398 1399 1401 1404 1406 1408 1411 1415 1418 1421 1425 1429 1432 1436 1442 1447 1452 1456 1460 1464 1468 1472 1476
1449 1443 1440 1440 1441 1441 1438 1438 1433 1429 1424 1421 1419 1411 1403 1398 1396 1395 1394 1394 1393 1394 1395 1396 1397 1399 1402 1405 1409 1412 1415 1419 1423 1427 1432 1437 1443 1447 1451 1454 1458 1463 1467 1471
1444 1440 1439 1439 1439 1438 1437 1431 1429 1427 1428 1426 1422 1417 1401 1394 1391 1390 1389 1389 1389 1390 1390 1391 1392 1394 1397 1399 1403 1406 1410 1414 1417 1421 1425 1429 1433 1437 1441 1446 1452 1457 1462 1466
1442 1438 1437 1437 1435 1434 1432 1429 1427 1425 1425 1425 1419 1418 1400 1390 1388 1385 1385 1385 1386 1386 1387 1387 1388 1390 1392 1395 1397 1400 1404 1408 1412 1415 1419 1423 1427 1432 1437 1442 1447 1451 1456 1460
1439 1436 1434 1433 1432 1432 1430 1429 1425 1422 1424 1426 1411 1412 1400 1389 1383 1381 1381 1381 1382 1383 1384 1385 1385 1386 1388 1391 1393 1396 1399 1402 1406 1410 1413 1416 1421 1425 1430 1435 1439 1444 1449 1453
1435 1431 1430 1431 1432 1431 1431 1435 1435 1430 1426 1416 1399 1399 1394 1382 1378 1378 1378 1379 1380 1381 1381 1382 1382 1383 1385 1387 1389 1391 1393 1397 1400 1403 1407 1410 1415 1419 1423 1428 1432 1437 1441 1445
1440 1435 1428 1428 1430 1432 1432 1434 1439 1436 1424 1410 1399 1396 1388 1378 1376 1376 1377 1378 1380 1381 1381 1381 1381 1381 1381 1383 1384 1386 1388 1392 1394 1397 1401 1405 1409 1413 1417 1421 1425 1430 1433 1438
1443 1435 1427 1426 1426 1429 1431 1431 1428 1431 1424 1419 1404 1391 1384 1377 1376 1376 1377 1379 1380 1381 1380 1380 1380 1380 1380 1380 1381 1383 1385 1387 1389 1392 1395 1399 1403 1407 1410 1414 1419 1424 1428 1432
1442 1442 1430 1427 1426 1425 1427 1427 1430 1432 1429 1419 1401 1393 1389 1382 1379 1378 1379 1380 1381 1381 1380 1380 1379 1379 1378 1378 1379 1380 1381 1383 1384 1387 1390 1393 1396 1400 1404 1408 1413 1417 1421 1426
1442 1445 1434 1428 1426 1427 1427 1427 1427 1427 1424 1421 1409 1397 1383 1382 1381 1382 1381 1381 1382 1382 1380 1379 1378 1377 1377 1376 1376 1376 1377 1379 1380 1382 1384 1387 1390 1394 1398 1402 1406 1410 1414 1419
1441 1442 1438 1428 1420 1420 1422 1422 1425 1430 1425 1417 1413 1401 1384 1383 1382 1382 1383 1383 1382 1381 1380 1379 1377 1376 1375 1374 1373 1373 1373 1375 1376 1377 1379 1382 1384 1388 1391 1394 1399 1403 1407 1412
1441 1443 1442 1429 1425 1421 1422 1420 1421 1423 1422 1418 1412 1400 1385 1384 1383 1383 1383 1383 1382 1380 1379 1378 1376 1374 1373 1372 1371 1371 1371 1371 1372 1373 1374 1376 1379 1381 1384 1388 1391 1395 1400 1404
1438 1439 1440 1434 1426 1424 1424 1422 1421 1423 1422 1414 1405 1396 1389 1386 1386 1385 1384 1383 1382 1380 1378 1377 1375 1374 1372 1370 1369 1368 1367 1368 1368 1368 1369 1370 1372 1375 1377 1380 1384 1388 1392 1396
1436 1436 1431 1426 1421 1420 1419 1416 1415 1416 1413 1411 1399 1393 1387 1386 1386 1384 1383 1382 1380 1379 1378 1377 1375 1373 1371 1369 1367 1366 1365 1364 1364 1363 1364 1365 1367 1369 1371 1374 1377 1381 1385 1389
1433 1432 1428 1423 1416 1414 1411 1406 1405 1404 1403 1400 1395 1389 1384 1384 1383 1382 1381 1379 1378 1377 1377 1376 1374 1372 1369 1367 1365 1363 1362 1361 1360 1359 1359 1360 1362 1363 1365 1368 1371 1374 1378 1382
1429 1430 1428 1422 1413 1411 1407 1395 1394 1393 1390 1391 1390 1384 1381 1380 1380 1379 1378 1377 1376 1375 1375 1374 1372 1370 1368 1365 1363 1361 1359 1358 1357 1356 1356 1356 1356 1358 1359 1362 1365 1367 1370 1374
1425 1426 1426 1421 1418 1418 1394 1384 1382 1382 1381 1381 1380 1378 1378 1378 1377 1377 1376 1375 1374 1373 1372 1371 1369 1367 1365 1362 1360 1357 1356 1354 1353 1353 1352 1351 1352 1353 1354 1356 1359 1362 1364 1368
1415 1420 1422 1420 1415 1400 1387 1380 1379 1380 1378 1376 1376 1376 1375 1375 1374 1373 1373 1372 1372 1371 1369 1368 1366 1364 1362 1359 1357 1354 1353 1351 1350 1349 1348 1347 1347 1348 1349 1350 1352 1355 1358 1361
1408 1413 1418 1415 1412 1401 1383 1376 1374 1378 1379 1373 1373 1373 1373 1373 1376 1373 1371 1370 1369 1367 1366 1364 1362 1360 1358 1356 1354 1351 1350 1348 1346 1345 1344 1343 1343 1343 1343 1345 1347 1349 1352 1355
1406 1409 1410 1409 1406 1391 1378 1375 1376 1386 1380 1371 1370 1371 1371 1372 1372 1371 1369 1367 1366 1364 1363 1361 1359 1356 1354 1353 1350 1348 1346 1345 1343 1341 1340 1339 1338 1338 1338 1340 1341 1344 1346 1350
1398 1401 1401 1402 1401 1390 1373 1373 1376 1375 1370 1369 1369 1369 1369 1369 1368 1367 1366 1364 1363 1361 1359 1357 1355 1353 1351 1349 1347 1345 1343 1341 1339 1337 1335 1334 1333 1333 1333 1335 1336 1338 1341 1343
1385 1385 1385 1385 1380 1371 1369 1369 1368 1368 1368 1367 1367 1367 1367 1366 1364 1363 1362 1360 1359 1357 1356 1354 1352 1349 1347 1345 1344 1342 1339 1337 1335 1333 1331 1330 1329 1328 1329 1329 1331 1333 1335 1337
1375 1375 1376 1374 1368 1366 1365 1365 1365 1365 1365 1364 1364 1363 1363 1362 1360 1359 1358 1356 1355 1353 1352 1350 1348 1346 1343 1341 1340 1338 1336 1334 1332 1330 1328 1326 1325 1324 1324 1325 1326 1327 1329 1331
1370 1370 1369 1367 1364 1363 1361 1361 1361 1361 1360 1360 1359 1358 1357 1356 1355 1355 1353 1352 1350 1349 1348 1346 1344 1342 1340 1338 1336 1334 1332 1330 1328 1326 1324 1323 1321 1320 1320 1321 1322 1323 1324 1326
1363 1364 1364 1360 1358 1358 1356 1356 1356 1355 1355 1354 1354 1353 1352 1351 1350 1349 1348 1347 1346 1344 1343 1342 1340 1338 1336 1334 1332 1331 1329 1327 1325 1323 1321 1319 1318 1317 1317 1317 1318 1319 1321 1323